SAS024 ESSA-ESNU

Flight info

Callsign SAS024
Flight time 0h 47m
Altitude 35000
Route RESNA DCT RIKPA DCT LENSO
Aircraft A320/M-SDE3FGHIRWY/LB1

Departure

Time 2026-04-15 22:22
Airport Stockholm-Arlanda Airport (ESSA)

Arrival

Time 2026-04-15 23:10
Airport Umeå Airport (ESNU)
Time Latitude Longitude Altitude Speed Heading
2026-04-15 22:08 59.65144 17.92698 112 ft 0 kts 190°
2026-04-15 22:15 59.65146 17.92698 112 ft 1 kts 190°
2026-04-15 22:15 59.65162 17.92704 112 ft 3 kts 191°
2026-04-15 22:15 59.65181 17.92711 112 ft 3 kts 191°
2026-04-15 22:15 59.65201 17.92719 112 ft 3 kts 191°
2026-04-15 22:16 59.65221 17.92726 111 ft 3 kts 191°
2026-04-15 22:16 59.65241 17.92734 110 ft 3 kts 191°
2026-04-15 22:16 59.65249 17.92737 110 ft 0 kts 191°
2026-04-15 22:18 59.65246 17.92717 110 ft 4 kts 263°
2026-04-15 22:18 59.65263 17.92570 110 ft 16 kts 289°
2026-04-15 22:18 59.65302 17.92337 106 ft 19 kts 282°
2026-04-15 22:19 59.65224 17.92226 107 ft 18 kts 189°
2026-04-15 22:19 59.65072 17.92171 107 ft 26 kts 190°
2026-04-15 22:19 59.64883 17.92102 107 ft 29 kts 190°
2026-04-15 22:19 59.64673 17.92026 108 ft 32 kts 190°
2026-04-15 22:20 59.64460 17.91949 111 ft 32 kts 190°
2026-04-15 22:20 59.64242 17.91871 114 ft 32 kts 191°
2026-04-15 22:20 59.64035 17.91795 113 ft 30 kts 190°
2026-04-15 22:20 59.63833 17.91690 107 ft 24 kts 213°
2026-04-15 22:21 59.63729 17.91487 107 ft 17 kts 250°
2026-04-15 22:21 59.63783 17.91346 110 ft 14 kts 355°
2026-04-15 22:21 59.63894 17.91383 109 ft 19 kts 10°
2026-04-15 22:21 59.64233 17.91504 107 ft 86 kts 10°
2026-04-15 22:22 59.65030 17.91796 108 ft 143 kts 10°
2026-04-15 22:22 59.66022 17.92153 687 ft 142 kts 10°
2026-04-15 22:22 59.66982 17.92490 1345 ft 144 kts 14°
2026-04-15 22:22 59.68034 17.92877 1752 ft 165 kts 14°
2026-04-15 22:23 59.69236 17.93327 2102 ft 187 kts 14°
2026-04-15 22:23 59.70608 17.93839 2458 ft 213 kts 13°
2026-04-15 22:23 59.72153 17.94407 2997 ft 238 kts 13°
2026-04-15 22:23 59.73847 17.94958 3809 ft 252 kts
2026-04-15 22:24 59.75606 17.95265 4791 ft 259 kts
2026-04-15 22:24 59.77434 17.95478 5787 ft 265 kts
2026-04-15 22:24 59.79296 17.95662 6769 ft 271 kts
2026-04-15 22:24 59.81175 17.95848 7655 ft 276 kts
2026-04-15 22:25 59.83120 17.96050 8531 ft 282 kts
2026-04-15 22:25 59.85108 17.96265 9469 ft 287 kts
2026-04-15 22:25 59.87119 17.96488 10369 ft 291 kts
2026-04-15 22:25 59.89187 17.96733 10794 ft 313 kts
2026-04-15 22:26 59.91422 17.97010 11273 ft 327 kts
2026-04-15 22:26 59.93720 17.97291 12011 ft 333 kts
2026-04-15 22:26 59.96055 17.97569 12829 ft 337 kts
2026-04-15 22:26 59.98412 17.97848 13646 ft 341 kts
2026-04-15 22:27 60.00793 17.98129 14403 ft 345 kts
2026-04-15 22:27 60.03177 17.98411 15080 ft 349 kts
2026-04-15 22:27 60.05629 17.98700 15743 ft 353 kts
2026-04-15 22:27 60.08066 17.98989 16391 ft 357 kts
2026-04-15 22:28 60.10573 17.99290 17059 ft 361 kts
2026-04-15 22:28 60.13112 17.99597 17710 ft 366 kts
2026-04-15 22:28 60.15668 17.99907 18396 ft 370 kts
2026-04-15 22:28 60.18223 18.00220 19003 ft 373 kts
2026-04-15 22:29 60.20839 18.00540 19635 ft 376 kts
2026-04-15 22:29 60.23445 18.00859 20281 ft 379 kts
2026-04-15 22:29 60.26101 18.01187 20944 ft 382 kts
2026-04-15 22:29 60.28760 18.01513 21567 ft 385 kts
2026-04-15 22:30 60.31453 18.01840 22181 ft 388 kts
2026-04-15 22:30 60.34168 18.02174 22790 ft 391 kts
2026-04-15 22:30 60.36844 18.02751 23399 ft 391 kts 14°
2026-04-15 22:30 60.39492 18.04172 23990 ft 392 kts 20°
2026-04-15 22:31 60.42079 18.05767 24496 ft 394 kts 20°
2026-04-15 22:31 60.44725 18.07401 25009 ft 396 kts 20°
2026-04-15 22:31 60.47367 18.09033 25523 ft 398 kts 20°
2026-04-15 22:31 60.50008 18.10668 26018 ft 400 kts 20°
2026-04-15 22:32 60.52695 18.12333 26513 ft 402 kts 20°
2026-04-15 22:32 60.55366 18.13989 26997 ft 404 kts 20°
2026-04-15 22:32 60.58005 18.15628 27465 ft 406 kts 20°
2026-04-15 22:32 60.60720 18.17314 27924 ft 408 kts 20°
2026-04-15 22:33 60.63427 18.19000 28364 ft 410 kts 20°
2026-04-15 22:33 60.66173 18.20714 28819 ft 412 kts 20°
2026-04-15 22:33 60.68899 18.22423 29220 ft 414 kts 19°
2026-04-15 22:33 60.71686 18.24180 29577 ft 418 kts 19°
2026-04-15 22:34 60.74450 18.25924 29978 ft 421 kts 19°
2026-04-15 22:34 60.77267 18.27698 30394 ft 424 kts 19°
2026-04-15 22:34 60.80111 18.29488 30746 ft 426 kts 19°
2026-04-15 22:34 60.82924 18.31261 31075 ft 429 kts 19°
2026-04-15 22:35 60.85802 18.33083 31404 ft 432 kts 19°
2026-04-15 22:35 60.88689 18.34914 31723 ft 435 kts 19°
2026-04-15 22:35 60.91578 18.36751 32042 ft 438 kts 19°
2026-04-15 22:35 60.94498 18.38610 32468 ft 438 kts 19°
2026-04-15 22:36 60.97422 18.40475 32904 ft 438 kts 19°
2026-04-15 22:36 61.00310 18.42326 33343 ft 438 kts 19°
2026-04-15 22:36 61.03221 18.44195 33793 ft 438 kts 19°
2026-04-15 22:36 61.06148 18.46071 34252 ft 438 kts 18°
2026-04-15 22:37 61.09039 18.47924 34630 ft 438 kts 18°
2026-04-15 22:37 61.11957 18.49795 34983 ft 438 kts 18°
2026-04-15 22:37 61.14879 18.51671 35245 ft 439 kts 18°
2026-04-15 22:38 61.20642 18.55390 35313 ft 431 kts 18°
2026-04-15 22:38 61.26345 18.59088 35309 ft 428 kts 18°
2026-04-15 22:39 61.31999 18.62777 35315 ft 427 kts 18°
2026-04-15 22:39 61.37693 18.66508 35315 ft 427 kts 18°
2026-04-15 22:40 61.43345 18.70217 35317 ft 427 kts 18°
2026-04-15 22:40 61.48996 18.73956 35320 ft 427 kts 18°
2026-04-15 22:41 61.57504 18.79590 35316 ft 428 kts 18°
2026-04-15 22:41 61.63199 18.83380 35322 ft 428 kts 18°
2026-04-15 22:42 61.68843 18.87154 35325 ft 428 kts 18°
2026-04-15 22:42 61.74546 18.90978 35329 ft 428 kts 18°
2026-04-15 22:43 61.80210 18.94791 35332 ft 428 kts 19°
2026-04-15 22:43 61.85865 18.98621 35328 ft 428 kts 18°
2026-04-15 22:44 61.91569 19.02495 35309 ft 429 kts 18°
2026-04-15 22:44 61.94392 19.04416 35073 ft 427 kts 19°
2026-04-15 22:44 61.97225 19.06351 34827 ft 423 kts 19°
2026-04-15 22:45 61.99997 19.08251 34399 ft 420 kts 19°
2026-04-15 22:45 62.02782 19.10164 33874 ft 418 kts 19°
2026-04-15 22:45 62.05512 19.12037 33420 ft 413 kts 19°
2026-04-15 22:45 62.08257 19.13920 32955 ft 410 kts 19°
2026-04-15 22:46 62.10930 19.15759 32496 ft 406 kts 19°
2026-04-15 22:46 62.13632 19.17621 32042 ft 403 kts 19°
2026-04-15 22:46 62.16298 19.19465 31593 ft 400 kts 19°
2026-04-15 22:46 62.18914 19.21281 31159 ft 398 kts 19°
2026-04-15 22:47 62.21545 19.23114 30735 ft 395 kts 19°
2026-04-15 22:47 62.24133 19.24920 30300 ft 392 kts 19°
2026-04-15 22:47 62.26735 19.26732 29849 ft 389 kts 19°
2026-04-15 22:47 62.29300 19.28520 29458 ft 385 kts 19°
2026-04-15 22:48 62.31820 19.30282 29063 ft 382 kts 19°
2026-04-15 22:48 62.34351 19.32055 28677 ft 379 kts 19°
2026-04-15 22:48 62.36857 19.33818 28294 ft 377 kts 19°
2026-04-15 22:48 62.38507 19.34983 28038 ft 375 kts 19°
2026-04-15 22:49 62.41791 19.37305 27520 ft 372 kts 18°
2026-04-15 22:49 62.43423 19.38457 27264 ft 371 kts 18°
2026-04-15 22:49 62.46672 19.40749 26739 ft 368 kts 18°
2026-04-15 22:49 62.49100 19.42466 26347 ft 366 kts 18°
2026-04-15 22:50 62.50703 19.43599 26082 ft 364 kts 18°
2026-04-15 22:50 62.53119 19.45309 25676 ft 362 kts 18°
2026-04-15 22:50 62.55513 19.47012 25277 ft 361 kts 19°
2026-04-15 22:50 62.57876 19.48696 24854 ft 359 kts 19°
2026-04-15 22:51 62.60251 19.50388 24438 ft 358 kts 19°
2026-04-15 22:51 62.62622 19.52086 24013 ft 356 kts 19°
2026-04-15 22:51 62.64957 19.53761 23545 ft 355 kts 19°
2026-04-15 22:51 62.67303 19.55446 23123 ft 351 kts 19°
2026-04-15 22:52 62.69592 19.57093 22705 ft 348 kts 18°
2026-04-15 22:52 62.71888 19.58746 22290 ft 345 kts 18°
2026-04-15 22:52 62.74170 19.60392 21873 ft 342 kts 18°
2026-04-15 22:52 62.76400 19.62005 21466 ft 340 kts 18°
2026-04-15 22:53 62.78653 19.63634 21053 ft 338 kts 18°
2026-04-15 22:53 62.80853 19.65219 20648 ft 336 kts 18°
2026-04-15 22:53 62.83073 19.66821 20237 ft 334 kts 18°
2026-04-15 22:53 62.85277 19.68423 19835 ft 332 kts 19°
2026-04-15 22:54 62.87478 19.70029 19427 ft 331 kts 18°
2026-04-15 22:54 62.89632 19.71602 19028 ft 329 kts 19°
2026-04-15 22:54 62.91812 19.73192 18621 ft 328 kts 19°
2026-04-15 22:54 62.93985 19.74779 18179 ft 326 kts 19°
2026-04-15 22:55 62.96108 19.76332 17784 ft 323 kts 19°
2026-04-15 22:55 62.98244 19.77904 17391 ft 321 kts 19°
2026-04-15 22:55 63.00353 19.79459 16993 ft 318 kts 19°
2026-04-15 22:55 63.02429 19.80988 16608 ft 316 kts 19°
2026-04-15 22:56 63.04520 19.82527 16220 ft 314 kts 19°
2026-04-15 22:56 63.06589 19.84050 15838 ft 312 kts 19°
2026-04-15 22:56 63.08626 19.85555 15464 ft 311 kts 19°
2026-04-15 22:56 63.10676 19.87070 15087 ft 309 kts 19°
2026-04-15 22:57 63.12725 19.88586 14705 ft 308 kts 19°
2026-04-15 22:57 63.14728 19.90076 14332 ft 307 kts 19°
2026-04-15 22:57 63.16755 19.91587 13931 ft 307 kts 19°
2026-04-15 22:57 63.18782 19.93100 13540 ft 305 kts 20°
2026-04-15 22:58 63.20787 19.94597 13166 ft 302 kts 19°
2026-04-15 22:58 63.22755 19.96065 12797 ft 300 kts 19°
2026-04-15 22:58 63.24736 19.97569 12424 ft 299 kts 22°
2026-04-15 22:58 63.26575 19.99714 12055 ft 296 kts 36°
2026-04-15 22:59 63.28129 20.02575 11701 ft 294 kts 42°
2026-04-15 22:59 63.29657 20.05607 11338 ft 293 kts 42°
2026-04-15 22:59 63.31181 20.08619 10979 ft 292 kts 42°
2026-04-15 22:59 63.32704 20.11627 10620 ft 291 kts 42°
2026-04-15 23:00 63.34206 20.14597 10262 ft 290 kts 42°
2026-04-15 23:00 63.35700 20.17555 9875 ft 289 kts 42°
2026-04-15 23:00 63.37205 20.20539 9518 ft 288 kts 42°
2026-04-15 23:00 63.38699 20.23508 9161 ft 286 kts 42°
2026-04-15 23:01 63.40188 20.26474 8797 ft 284 kts 43°
2026-04-15 23:01 63.41645 20.29382 8448 ft 283 kts 43°
2026-04-15 23:01 63.43109 20.32310 8083 ft 282 kts 43°
2026-04-15 23:01 63.44557 20.35206 7732 ft 281 kts 43°
2026-04-15 23:02 63.46015 20.38133 7385 ft 280 kts 43°
2026-04-15 23:02 63.47468 20.41055 7029 ft 279 kts 42°
2026-04-15 23:02 63.48899 20.43933 6680 ft 279 kts 42°
2026-04-15 23:02 63.50343 20.46835 6309 ft 278 kts 41°
2026-04-15 23:03 63.51921 20.49273 6095 ft 268 kts 29°
2026-04-15 23:03 63.53476 20.51259 5772 ft 256 kts 30°
2026-04-15 23:03 63.54992 20.53205 5587 ft 244 kts 30°
2026-04-15 23:03 63.56484 20.55122 5446 ft 246 kts 30°
2026-04-15 23:04 63.58002 20.57035 4920 ft 252 kts 25°
2026-04-15 23:04 63.59638 20.58140 4470 ft 246 kts
2026-04-15 23:04 63.61334 20.58062 3953 ft 242 kts 348°
2026-04-15 23:04 63.62936 20.57304 3667 ft 230 kts 348°
2026-04-15 23:05 63.64428 20.56533 3538 ft 212 kts 340°
2026-04-15 23:05 63.65674 20.55078 3465 ft 194 kts 323°
2026-04-15 23:05 63.66699 20.53120 3133 ft 189 kts 318°
2026-04-15 23:05 63.67648 20.51236 2894 ft 178 kts 318°
2026-04-15 23:06 63.68546 20.49457 2666 ft 164 kts 318°
2026-04-15 23:06 63.69360 20.47843 2461 ft 147 kts 318°
2026-04-15 23:06 63.70100 20.46375 2265 ft 141 kts 318°
2026-04-15 23:06 63.70832 20.44923 2072 ft 138 kts 319°
2026-04-15 23:07 63.71552 20.43492 1880 ft 137 kts 319°
2026-04-15 23:07 63.72254 20.42098 1695 ft 136 kts 319°
2026-04-15 23:07 63.72963 20.40687 1507 ft 135 kts 319°
2026-04-15 23:07 63.73657 20.39307 1329 ft 134 kts 320°
2026-04-15 23:08 63.74355 20.37918 1142 ft 132 kts 320°
2026-04-15 23:08 63.75041 20.36551 973 ft 132 kts 320°
2026-04-15 23:08 63.75726 20.35179 770 ft 130 kts 320°
2026-04-15 23:08 63.76408 20.33843 561 ft 129 kts 319°
2026-04-15 23:09 63.77066 20.32515 390 ft 126 kts 319°
2026-04-15 23:09 63.77726 20.31201 214 ft 125 kts 318°
2026-04-15 23:09 63.78377 20.29888 49 ft 125 kts 318°
2026-04-15 23:09 63.78952 20.28743 28 ft 89 kts 318°
2026-04-15 23:10 63.79155 20.28415 27 ft 14 kts 29°
2026-04-15 23:10 63.79225 20.28579 27 ft 6 kts 49°
2026-04-15 23:10 63.79241 20.28621 27 ft 5 kts 49°
2026-04-15 23:10 63.79276 20.28712 27 ft 7 kts 48°
2026-04-15 23:11 63.79287 20.28739 27 ft 2 kts 48°
2026-04-15 23:11 63.79304 20.28782 27 ft 0 kts 48°
2026-04-15 23:11 63.79309 20.28794 27 ft 0 kts 48°